Time,TemperatureF,DewpointF,PressureIn,WindDirection,WindDirectionDegrees,WindSpeedMPH,WindSpeedGustMPH,Humidity,HourlyPrecipIn,Conditions,Clouds,dailyrainin,SoftwareType,DateUTC
2013-03-29 00:03:00,38.0,26.0,-100.00,West,280,6.0,9.0,60,0.00,,,-99.99,,2013-03-29 04:03:00,
2013-03-29 00:13:00,38.0,25.0,-100.00,West,270,6.0,10.0,60,0.00,,,-99.99,,2013-03-29 04:13:00,
2013-03-29 00:22:00,37.0,26.0,-100.00,West,270,4.0,9.0,61,0.00,,,-99.99,,2013-03-29 04:22:00,
2013-03-29 00:33:00,37.0,25.0,-100.00,West,270,4.0,9.0,61,0.00,,,-99.99,,2013-03-29 04:33:00,
2013-03-29 00:43:00,37.0,25.0,-100.00,WSW,255,4.0,8.0,62,0.00,,,-99.99,,2013-03-29 04:43:00,
2013-03-29 00:52:00,37.0,25.0,-100.00,WNW,285,6.0,9.0,62,0.00,,,-99.99,,2013-03-29 04:52:00,
2013-03-29 01:03:00,36.0,25.0,-100.00,West,275,3.0,6.0,63,0.00,,,-99.99,,2013-03-29 05:03:00,
2013-03-29 01:12:00,36.0,25.0,-100.00,WSW,250,4.0,7.0,63,0.00,,,-99.99,,2013-03-29 05:12:00,
2013-03-29 01:23:00,36.0,25.0,-100.00,WSW,245,6.0,8.0,63,0.00,,,-99.99,,2013-03-29 05:23:00,
2013-03-29 01:33:00,36.0,25.0,-100.00,West,260,4.0,9.0,64,0.00,,,-99.99,,2013-03-29 05:33:00,
2013-03-29 01:43:00,35.0,25.0,-100.00,WSW,255,4.0,7.0,65,0.00,,,-99.99,,2013-03-29 05:43:00,
2013-03-29 01:52:00,35.0,25.0,-100.00,West,260,4.0,9.0,66,0.00,,,-99.99,,2013-03-29 05:52:00,
2013-03-29 02:02:00,35.0,25.0,-100.00,West,265,2.0,7.0,66,0.00,,,-99.99,,2013-03-29 06:02:00,
2013-03-29 02:12:00,35.0,25.0,-100.00,West,260,2.0,5.0,67,0.00,,,-99.99,,2013-03-29 06:12:00,
2013-03-29 02:23:00,34.0,25.0,-100.00,West,265,1.0,4.0,68,0.00,,,-99.99,,2013-03-29 06:23:00,
2013-03-29 02:32:00,34.0,25.0,-100.00,West,270,2.0,4.0,68,0.00,,,-99.99,,2013-03-29 06:32:00,
2013-03-29 02:42:00,34.0,25.0,-100.00,WNW,290,2.0,6.0,69,0.00,,,-99.99,,2013-03-29 06:42:00,
2013-03-29 02:52:00,35.0,25.0,-100.00,West,280,4.0,6.0,67,0.00,,,-99.99,,2013-03-29 06:52:00,
2013-03-29 03:03:00,35.0,25.0,-100.00,West,280,4.0,6.0,67,0.00,,,-99.99,,2013-03-29 07:03:00,
2013-03-29 03:12:00,35.0,25.0,-100.00,WNW,285,5.0,7.0,66,0.00,,,-99.99,,2013-03-29 07:12:00,
2013-03-29 03:22:00,35.0,25.0,-100.00,WNW,290,6.0,9.0,66,0.00,,,-99.99,,2013-03-29 07:22:00,
2013-03-29 03:32:00,35.0,24.0,-100.00,WNW,295,6.0,9.0,66,0.00,,,-99.99,,2013-03-29 07:32:00,
2013-03-29 03:42:00,34.0,24.0,-100.00,WNW,295,4.0,9.0,67,0.00,,,-99.99,,2013-03-29 07:42:00,
2013-03-29 03:52:00,34.0,24.0,-100.00,WNW,290,4.0,9.0,67,0.00,,,-99.99,,2013-03-29 07:52:00,
2013-03-29 04:02:00,34.0,24.0,-100.00,West,275,4.0,7.0,67,0.00,,,-99.99,,2013-03-29 08:02:00,
2013-03-29 04:12:00,34.0,24.0,-100.00,West,270,4.0,7.0,68,0.00,,,-99.99,,2013-03-29 08:12:00,
2013-03-29 04:22:00,34.0,24.0,-100.00,WNW,285,4.0,7.0,68,0.00,,,-99.99,,2013-03-29 08:22:00,
2013-03-29 04:32:00,34.0,24.0,-100.00,WNW,290,4.0,7.0,69,0.00,,,-99.99,,2013-03-29 08:32:00,
2013-03-29 04:42:00,33.0,24.0,-100.00,West,280,3.0,6.0,69,0.00,,,-99.99,,2013-03-29 08:42:00,
2013-03-29 04:52:00,33.0,24.0,-100.00,WNW,295,4.0,6.0,69,0.00,,,-99.99,,2013-03-29 08:52:00,
2013-03-29 05:02:00,33.0,24.0,-100.00,West,280,4.0,6.0,70,0.00,,,-99.99,,2013-03-29 09:02:00,
2013-03-29 05:13:00,33.0,24.0,-100.00,WSW,255,2.0,6.0,71,0.00,,,-99.99,,2013-03-29 09:13:00,
2013-03-29 05:22:00,32.0,24.0,-100.00,West,275,2.0,4.0,72,0.00,,,-99.99,,2013-03-29 09:22:00,
2013-03-29 05:33:00,33.0,24.0,-100.00,WNW,285,4.0,6.0,71,0.00,,,-99.99,,2013-03-29 09:33:00,
2013-03-29 05:42:00,33.0,24.0,-100.00,WNW,290,4.0,6.0,71,0.00,,,-99.99,,2013-03-29 09:42:00,
2013-03-29 05:52:00,33.0,24.0,-100.00,WNW,295,3.0,6.0,71,0.00,,,-99.99,,2013-03-29 09:52:00,
2013-03-29 06:03:00,32.0,24.0,-100.00,WNW,295,2.0,5.0,72,0.00,,,-99.99,,2013-03-29 10:03:00,
2013-03-29 06:12:00,33.0,24.0,-100.00,WNW,300,4.0,6.0,72,0.00,,,-99.99,,2013-03-29 10:12:00,
2013-03-29 06:23:00,32.0,24.0,-100.00,WNW,300,4.0,6.0,73,0.00,,,-99.99,,2013-03-29 10:23:00,
2013-03-29 06:33:00,32.0,24.0,-100.00,WNW,300,4.0,6.0,73,0.00,,,-99.99,,2013-03-29 10:33:00,
2013-03-29 06:42:00,32.0,24.0,-100.00,West,280,4.0,6.0,73,0.00,,,-99.99,,2013-03-29 10:42:00,
2013-03-29 06:52:00,32.0,24.0,-100.00,West,280,3.0,6.0,73,0.00,,,-99.99,,2013-03-29 10:52:00,
2013-03-29 07:03:00,31.0,24.0,-100.00,West,275,4.0,6.0,74,0.00,,,-99.99,,2013-03-29 11:03:00,
2013-03-29 07:12:00,32.0,24.0,-100.00,WNW,295,4.0,6.0,74,0.00,,,-99.99,,2013-03-29 11:12:00,
2013-03-29 07:23:00,31.0,24.0,-100.00,WNW,295,4.0,6.0,75,0.00,,,-99.99,,2013-03-29 11:23:00,
2013-03-29 07:33:00,31.0,24.0,-100.00,WNW,300,4.0,5.0,75,0.00,,,-99.99,,2013-03-29 11:33:00,
2013-03-29 07:42:00,31.0,24.0,-100.00,WNW,295,3.0,6.0,75,0.00,,,-99.99,,2013-03-29 11:42:00,
2013-03-29 07:52:00,31.0,24.0,-100.00,NW,310,4.0,6.0,75,0.00,,,-99.99,,2013-03-29 11:52:00,
2013-03-29 08:03:00,31.0,24.0,-100.00,NW,305,4.0,6.0,76,0.00,,,-99.99,,2013-03-29 12:03:00,
2013-03-29 08:12:00,31.0,24.0,-100.00,NW,305,4.0,6.0,75,0.00,,,-99.99,,2013-03-29 12:12:00,
2013-03-29 08:22:00,32.0,25.0,-100.00,NW,305,3.0,6.0,75,0.00,,,-99.99,,2013-03-29 12:22:00,
2013-03-29 08:32:00,32.0,25.0,-100.00,NW,310,3.0,5.0,73,0.00,,,-99.99,,2013-03-29 12:32:00,
2013-03-29 08:42:00,33.0,25.0,-100.00,WNW,300,3.0,6.0,73,0.00,,,-99.99,,2013-03-29 12:42:00,
2013-03-29 08:52:00,33.0,25.0,-100.00,NW,315,4.0,6.0,71,0.00,,,-99.99,,2013-03-29 12:52:00,
2013-03-29 09:03:00,34.0,25.0,-100.00,NW,310,6.0,8.0,69,0.00,,,-99.99,,2013-03-29 13:03:00,
2013-03-29 09:12:00,35.0,25.0,-100.00,NW,325,4.0,7.0,68,0.00,,,-99.99,,2013-03-29 13:12:00,
2013-03-29 09:22:00,35.0,25.0,-100.00,NW,305,6.0,7.0,66,0.00,,,-99.99,,2013-03-29 13:22:00,
2013-03-29 09:33:00,36.0,25.0,-100.00,NW,310,5.0,7.0,64,0.00,,,-99.99,,2013-03-29 13:33:00,
2013-03-29 09:42:00,37.0,25.0,-100.00,West,275,4.0,6.0,62,0.00,,,-99.99,,2013-03-29 13:42:00,
2013-03-29 09:52:00,37.0,25.0,-100.00,WNW,295,4.0,6.0,61,0.00,,,-99.99,,2013-03-29 13:52:00,
2013-03-29 10:03:00,38.0,26.0,-100.00,West,280,2.0,6.0,60,0.00,,,-99.99,,2013-03-29 14:03:00,
2013-03-29 10:12:00,38.0,26.0,-100.00,WNW,300,4.0,6.0,59,0.00,,,-99.99,,2013-03-29 14:12:00,
2013-03-29 10:22:00,40.0,26.0,-100.00,NW,315,4.0,6.0,57,0.00,,,-99.99,,2013-03-29 14:22:00,
2013-03-29 10:33:00,41.0,26.0,-100.00,NW,320,4.0,7.0,55,0.00,,,-99.99,,2013-03-29 14:33:00,
2013-03-29 10:42:00,42.0,26.0,-100.00,West,275,2.0,6.0,52,0.00,,,-99.99,,2013-03-29 14:42:00,
2013-03-29 10:52:00,42.0,23.0,-100.00,North,350,2.0,9.0,46,0.00,,,-99.99,,2013-03-29 14:52:00,
2013-03-29 11:02:00,43.0,23.0,-100.00,NW,320,6.0,11.0,45,0.00,,,-99.99,,2013-03-29 15:02:00,
2013-03-29 11:12:00,44.0,24.0,-100.00,NW,310,4.0,9.0,45,0.00,,,-99.99,,2013-03-29 15:12:00,
2013-03-29 11:22:00,44.0,23.0,-100.00,NW,315,6.0,11.0,43,0.00,,,-99.99,,2013-03-29 15:22:00,
2013-03-29 11:33:00,44.0,23.0,-100.00,NW,325,9.0,12.0,43,0.00,,,-99.99,,2013-03-29 15:33:00,
2013-03-29 11:43:00,45.0,25.0,-100.00,NW,305,4.0,9.0,45,0.00,,,-99.99,,2013-03-29 15:43:00,
2013-03-29 11:52:00,47.0,23.0,-100.00,WSW,245,6.0,9.0,39,0.00,,,-99.99,,2013-03-29 15:52:00,
2013-03-29 12:03:00,46.0,24.0,-100.00,SW,230,3.0,10.0,42,0.00,,,-99.99,,2013-03-29 16:03:00,
2013-03-29 12:13:00,45.0,22.0,-100.00,West,260,6.0,12.0,40,0.00,,,-99.99,,2013-03-29 16:13:00,
2013-03-29 12:23:00,46.0,23.0,-100.00,SW,220,9.0,16.0,39,0.00,,,-99.99,,2013-03-29 16:23:00,
2013-03-29 12:33:00,47.0,24.0,-100.00,WSW,245,6.0,14.0,39,0.00,,,-99.99,,2013-03-29 16:33:00,
2013-03-29 12:42:00,45.0,21.0,-100.00,SW,235,8.0,16.0,38,0.00,,,-99.99,,2013-03-29 16:42:00,
2013-03-29 12:52:00,46.0,23.0,-100.00,SW,225,6.0,12.0,39,0.00,,,-99.99,,2013-03-29 16:52:00,
2013-03-29 13:03:00,47.0,23.0,-100.00,SW,220,6.0,13.0,39,0.00,,,-99.99,,2013-03-29 17:03:00,
2013-03-29 13:12:00,47.0,23.0,-100.00,WSW,250,9.0,16.0,39,0.00,,,-99.99,,2013-03-29 17:12:00,
2013-03-29 13:22:00,47.0,25.0,-100.00,WNW,300,4.0,15.0,42,0.00,,,-99.99,,2013-03-29 17:22:00,
2013-03-29 13:33:00,48.0,24.0,-100.00,SW,235,11.0,15.0,38,0.00,,,-99.99,,2013-03-29 17:33:00,
2013-03-29 13:43:00,48.0,24.0,-100.00,WSW,255,7.0,14.0,39,0.00,,,-99.99,,2013-03-29 17:43:00,
2013-03-29 13:52:00,48.0,24.0,-100.00,West,265,7.0,20.0,38,0.00,,,-99.99,,2013-03-29 17:52:00,
2013-03-29 14:02:00,49.0,25.0,-100.00,West,260,10.0,16.0,39,0.00,,,-99.99,,2013-03-29 18:02:00,
2013-03-29 14:12:00,48.0,22.0,-100.00,WSW,240,10.0,16.0,36,0.00,,,-99.99,,2013-03-29 18:12:00,
2013-03-29 14:23:00,49.0,25.0,-100.00,West,270,11.0,17.0,38,0.00,,,-99.99,,2013-03-29 18:23:00,
2013-03-29 14:32:00,49.0,24.0,-100.00,West,275,7.0,15.0,37,0.00,,,-99.99,,2013-03-29 18:32:00,
2013-03-29 14:42:00,49.0,24.0,-100.00,WSW,250,9.0,21.0,37,0.00,,,-99.99,,2013-03-29 18:42:00,
2013-03-29 14:52:00,49.0,24.0,-100.00,WSW,255,9.0,16.0,38,0.00,,,-99.99,,2013-03-29 18:52:00,
2013-03-29 15:03:00,49.0,24.0,-100.00,WSW,250,9.0,13.0,36,0.00,,,-99.99,,2013-03-29 19:03:00,
2013-03-29 15:12:00,49.0,25.0,-100.00,WSW,245,5.0,16.0,38,0.00,,,-99.99,,2013-03-29 19:12:00,
2013-03-29 15:23:00,49.0,24.0,-100.00,West,275,9.0,17.0,37,0.00,,,-99.99,,2013-03-29 19:23:00,
2013-03-29 15:33:00,49.0,24.0,-100.00,SW,225,12.0,19.0,36,0.00,,,-99.99,,2013-03-29 19:33:00,
2013-03-29 15:42:00,49.0,24.0,-100.00,West,275,9.0,16.0,37,0.00,,,-99.99,,2013-03-29 19:42:00,
2013-03-29 15:52:00,48.0,24.0,-100.00,WSW,250,8.0,16.0,38,0.00,,,-99.99,,2013-03-29 19:52:00,
2013-03-29 16:03:00,50.0,23.0,-100.00,West,270,10.0,19.0,34,0.00,,,-99.99,,2013-03-29 20:03:00,
2013-03-29 16:12:00,48.0,23.0,-100.00,WNW,300,9.0,21.0,37,0.00,,,-99.99,,2013-03-29 20:12:00,
2013-03-29 16:22:00,47.0,24.0,-100.00,WNW,300,9.0,14.0,39,0.00,,,-99.99,,2013-03-29 20:22:00,
2013-03-29 16:33:00,49.0,26.0,-100.00,NW,310,9.0,14.0,40,0.00,,,-99.99,,2013-03-29 20:33:00,
2013-03-29 16:42:00,49.0,26.0,-100.00,NW,320,11.0,16.0,40,0.00,,,-99.99,,2013-03-29 20:42:00,
2013-03-29 16:52:00,50.0,24.0,-100.00,WNW,290,10.0,17.0,36,0.00,,,-99.99,,2013-03-29 20:52:00,
2013-03-29 17:02:00,49.0,25.0,-100.00,West,280,8.0,19.0,39,0.00,,,-99.99,,2013-03-29 21:02:00,
2013-03-29 17:12:00,49.0,24.0,-100.00,WSW,250,10.0,16.0,38,0.00,,,-99.99,,2013-03-29 21:12:00,
2013-03-29 17:22:00,51.0,25.0,-100.00,SW,235,9.0,12.0,36,0.00,,,-99.99,,2013-03-29 21:22:00,
2013-03-29 17:33:00,51.0,25.0,-100.00,SW,235,9.0,12.0,36,0.00,,,-99.99,,2013-03-29 21:33:00,
2013-03-29 17:42:00,48.0,25.0,-100.00,WNW,295,4.0,14.0,40,0.00,,,-99.99,,2013-03-29 21:42:00,
2013-03-29 17:53:00,48.0,26.0,-100.00,NW,305,7.0,14.0,41,0.00,,,-99.99,,2013-03-29 21:53:00,
2013-03-29 18:03:00,48.0,26.0,-100.00,West,275,6.0,14.0,40,0.00,,,-99.99,,2013-03-29 22:03:00,
2013-03-29 18:13:00,48.0,26.0,-100.00,WNW,300,9.0,16.0,42,0.00,,,-99.99,,2013-03-29 22:13:00,
2013-03-29 18:23:00,48.0,25.0,-100.00,WNW,285,8.0,12.0,40,0.00,,,-99.99,,2013-03-29 22:23:00,
2013-03-29 18:33:00,48.0,25.0,-100.00,WNW,295,9.0,13.0,39,0.00,,,-99.99,,2013-03-29 22:33:00,
2013-03-29 18:42:00,48.0,24.0,-100.00,WNW,300,9.0,16.0,39,0.00,,,-99.99,,2013-03-29 22:42:00,
2013-03-29 18:53:00,47.0,25.0,-100.00,WNW,300,6.0,13.0,41,0.00,,,-99.99,,2013-03-29 22:53:00,
2013-03-29 19:03:00,47.0,25.0,-100.00,NW,305,7.0,16.0,41,0.00,,,-99.99,,2013-03-29 23:03:00,
2013-03-29 19:12:00,47.0,25.0,-100.00,NW,305,6.0,14.0,42,0.00,,,-99.99,,2013-03-29 23:12:00,
2013-03-29 19:22:00,47.0,25.0,-100.00,NW,310,10.0,13.0,42,0.00,,,-99.99,,2013-03-29 23:22:00,
2013-03-29 19:32:00,46.0,26.0,-100.00,NW,315,9.0,12.0,44,0.00,,,-99.99,,2013-03-29 23:32:00,
2013-03-29 19:42:00,46.0,26.0,-100.00,NW,315,5.0,11.0,46,0.00,,,-99.99,,2013-03-29 23:42:00,
2013-03-29 19:52:00,46.0,26.0,-100.00,NW,325,7.0,12.0,45,0.00,,,-99.99,,2013-03-29 23:52:00,
2013-03-29 20:03:00,45.0,25.0,-100.00,NW,315,8.0,12.0,45,0.00,,,-99.99,,2013-03-30 00:03:00,
2013-03-29 20:12:00,44.0,26.0,-100.00,NW,305,6.0,10.0,47,0.00,,,-99.99,,2013-03-30 00:12:00,
2013-03-29 20:22:00,43.0,25.0,-100.00,NW,315,4.0,7.0,48,0.00,,,-99.99,,2013-03-30 00:22:00,
2013-03-29 20:32:00,43.0,25.0,-100.00,NW,310,3.0,5.0,49,0.00,,,-99.99,,2013-03-30 00:32:00,
2013-03-29 20:42:00,43.0,25.0,-100.00,NW,315,2.0,4.0,49,0.00,,,-99.99,,2013-03-30 00:42:00,
2013-03-29 21:03:00,42.0,25.0,-100.00,NW,310,4.0,6.0,50,0.00,,,-99.99,,2013-03-30 01:03:00,
2013-03-29 21:12:00,41.0,25.0,-100.00,NW,315,4.0,6.0,52,0.00,,,-99.99,,2013-03-30 01:12:00,
2013-03-29 21:22:00,42.0,24.0,-100.00,NW,320,4.0,6.0,49,0.00,,,-99.99,,2013-03-30 01:22:00,
2013-03-29 21:33:00,42.0,24.0,-100.00,NW,320,4.0,7.0,50,0.00,,,-99.99,,2013-03-30 01:33:00,
2013-03-29 21:43:00,42.0,24.0,-100.00,NW,320,4.0,5.0,50,0.00,,,-99.99,,2013-03-30 01:43:00,
2013-03-29 21:52:00,42.0,24.0,-100.00,NW,320,4.0,6.0,49,0.00,,,-99.99,,2013-03-30 01:52:00,
2013-03-29 22:03:00,42.0,24.0,-100.00,NW,325,4.0,6.0,50,0.00,,,-99.99,,2013-03-30 02:03:00,
2013-03-29 22:12:00,41.0,24.0,-100.00,NW,320,3.0,4.0,51,0.00,,,-99.99,,2013-03-30 02:12:00,
2013-03-29 22:22:00,41.0,24.0,-100.00,NW,325,4.0,4.0,50,0.00,,,-99.99,,2013-03-30 02:22:00,
2013-03-29 22:33:00,41.0,24.0,-100.00,NW,320,3.0,4.0,50,0.00,,,-99.99,,2013-03-30 02:33:00,
2013-03-29 22:42:00,41.0,24.0,-100.00,NW,325,2.0,3.0,49,0.00,,,-99.99,,2013-03-30 02:42:00,
2013-03-29 22:52:00,41.0,23.0,-100.00,NNW,335,3.0,4.0,48,0.00,,,-99.99,,2013-03-30 02:52:00,
2013-03-29 23:03:00,42.0,23.0,-100.00,NNW,335,2.0,3.0,48,0.00,,,-99.99,,2013-03-30 03:03:00,
2013-03-29 23:12:00,41.0,23.0,-100.00,NNW,335,1.0,2.0,48,0.00,,,-99.99,,2013-03-30 03:12:00,
2013-03-29 23:22:00,41.0,23.0,-100.00,NNW,330,1.0,2.0,48,0.00,,,-99.99,,2013-03-30 03:22:00,
2013-03-29 23:33:00,41.0,23.0,-100.00,NNW,345,1.0,2.0,48,0.00,,,-99.99,,2013-03-30 03:33:00,
2013-03-29 23:43:00,41.0,23.0,-100.00,NNW,340,1.0,2.0,48,0.00,,,-99.99,,2013-03-30 03:43:00,
2013-03-29 23:53:00,40.0,23.0,-100.00,NE,40,2.0,3.0,51,0.00,,,-99.99,,2013-03-30 03:53:00,